Index of /20260419/WXO-DD/model_rdps/10km/18/056
Name Last modified Size Description
Parent Directory -
20260419T18Z_MSC_RDPS_AbsoluteVorticity_IsbL-0250_RLatLon0.09_PT056H.grib2 2026-04-19 20:56 605K
20260419T18Z_MSC_RDPS_AbsoluteVorticity_IsbL-0500_RLatLon0.09_PT056H.grib2 2026-04-19 20:56 570K
20260419T18Z_MSC_RDPS_AbsoluteVorticity_IsbL-0700_RLatLon0.09_PT056H.grib2 2026-04-19 20:56 619K
20260419T18Z_MSC_RDPS_AbsoluteVorticity_IsbL-0850_RLatLon0.09_PT056H.grib2 2026-04-19 20:56 787K
20260419T18Z_MSC_RDPS_AirTemp_AGL-120m_RLatLon0.09_PT056H.grib2 2026-04-19 20:56 373K
20260419T18Z_MSC_RDPS_AirTemp_AGL-2m_RLatLon0.09_PT056H.grib2 2026-04-19 20:56 622K
20260419T18Z_MSC_RDPS_AirTemp_AGL-40m_RLatLon0.09_PT056H.grib2 2026-04-19 20:56 387K
20260419T18Z_MSC_RDPS_AirTemp_AGL-80m_RLatLon0.09_PT056H.grib2 2026-04-19 20:56 378K
20260419T18Z_MSC_RDPS_AirTemp_IsbL-0001_RLatLon0.09_PT056H.grib2 2026-04-19 20:56 227K
20260419T18Z_MSC_RDPS_AirTemp_IsbL-0005_RLatLon0.09_PT056H.grib2 2026-04-19 20:56 333K
20260419T18Z_MSC_RDPS_AirTemp_IsbL-0010_RLatLon0.09_PT056H.grib2 2026-04-19 20:56 308K
20260419T18Z_MSC_RDPS_AirTemp_IsbL-0020_RLatLon0.09_PT056H.grib2 2026-04-19 20:56 327K
20260419T18Z_MSC_RDPS_AirTemp_IsbL-0030_RLatLon0.09_PT056H.grib2 2026-04-19 20:56 350K
20260419T18Z_MSC_RDPS_AirTemp_IsbL-0050_RLatLon0.09_PT056H.grib2 2026-04-19 20:56 332K
20260419T18Z_MSC_RDPS_AirTemp_IsbL-0100_RLatLon0.09_PT056H.grib2 2026-04-19 20:56 403K
20260419T18Z_MSC_RDPS_AirTemp_IsbL-0150_RLatLon0.09_PT056H.grib2 2026-04-19 20:56 431K
20260419T18Z_MSC_RDPS_AirTemp_IsbL-0175_RLatLon0.09_PT056H.grib2 2026-04-19 20:56 427K
20260419T18Z_MSC_RDPS_AirTemp_IsbL-0200_RLatLon0.09_PT056H.grib2 2026-04-19 20:56 427K
20260419T18Z_MSC_RDPS_AirTemp_IsbL-0225_RLatLon0.09_PT056H.grib2 2026-04-19 20:56 422K
20260419T18Z_MSC_RDPS_AirTemp_IsbL-0250_RLatLon0.09_PT056H.grib2 2026-04-19 20:56 421K
20260419T18Z_MSC_RDPS_AirTemp_IsbL-0275_RLatLon0.09_PT056H.grib2 2026-04-19 20:56 401K
20260419T18Z_MSC_RDPS_AirTemp_IsbL-0300_RLatLon0.09_PT056H.grib2 2026-04-19 20:56 431K
20260419T18Z_MSC_RDPS_AirTemp_IsbL-0350_RLatLon0.09_PT056H.grib2 2026-04-19 20:56 422K
20260419T18Z_MSC_RDPS_AirTemp_IsbL-0400_RLatLon0.09_PT056H.grib2 2026-04-19 20:56 393K
20260419T18Z_MSC_RDPS_AirTemp_IsbL-0450_RLatLon0.09_PT056H.grib2 2026-04-19 20:56 403K
20260419T18Z_MSC_RDPS_AirTemp_IsbL-0500_RLatLon0.09_PT056H.grib2 2026-04-19 20:56 416K
20260419T18Z_MSC_RDPS_AirTemp_IsbL-0550_RLatLon0.09_PT056H.grib2 2026-04-19 20:56 434K
20260419T18Z_MSC_RDPS_AirTemp_IsbL-0600_RLatLon0.09_PT056H.grib2 2026-04-19 20:56 452K
20260419T18Z_MSC_RDPS_AirTemp_IsbL-0650_RLatLon0.09_PT056H.grib2 2026-04-19 20:56 465K
20260419T18Z_MSC_RDPS_AirTemp_IsbL-0700_RLatLon0.09_PT056H.grib2 2026-04-19 20:56 486K
20260419T18Z_MSC_RDPS_AirTemp_IsbL-0750_RLatLon0.09_PT056H.grib2 2026-04-19 20:56 526K
20260419T18Z_MSC_RDPS_AirTemp_IsbL-0800_RLatLon0.09_PT056H.grib2 2026-04-19 20:56 461K
20260419T18Z_MSC_RDPS_AirTemp_IsbL-0850_RLatLon0.09_PT056H.grib2 2026-04-19 20:56 503K
20260419T18Z_MSC_RDPS_AirTemp_IsbL-0875_RLatLon0.09_PT056H.grib2 2026-04-19 20:56 510K
20260419T18Z_MSC_RDPS_AirTemp_IsbL-0900_RLatLon0.09_PT056H.grib2 2026-04-19 20:56 512K
20260419T18Z_MSC_RDPS_AirTemp_IsbL-0925_RLatLon0.09_PT056H.grib2 2026-04-19 20:56 510K
20260419T18Z_MSC_RDPS_AirTemp_IsbL-0950_RLatLon0.09_PT056H.grib2 2026-04-19 20:56 517K
20260419T18Z_MSC_RDPS_AirTemp_IsbL-0970_RLatLon0.09_PT056H.grib2 2026-04-19 20:56 521K
20260419T18Z_MSC_RDPS_AirTemp_IsbL-0985_RLatLon0.09_PT056H.grib2 2026-04-19 20:56 514K
20260419T18Z_MSC_RDPS_AirTemp_IsbL-1000_RLatLon0.09_PT056H.grib2 2026-04-19 20:56 496K
20260419T18Z_MSC_RDPS_AirTemp_IsbL-1015_RLatLon0.09_PT056H.grib2 2026-04-19 20:56 492K
20260419T18Z_MSC_RDPS_Albedo_Sfc_RLatLon0.09_PT056H.grib2 2026-04-19 20:56 167K
20260419T18Z_MSC_RDPS_CAPE_Sfc_RLatLon0.09_PT056H.grib2 2026-04-19 20:56 1.6M
20260419T18Z_MSC_RDPS_CIN_Sfc_RLatLon0.09_PT056H.grib2 2026-04-19 20:56 1.1M
20260419T18Z_MSC_RDPS_CloudWater_EAtm_RLatLon0.09_PT056H.grib2 2026-04-19 20:56 218K
20260419T18Z_MSC_RDPS_ConvectivePrecip-Accum_Sfc_RLatLon0.09_PT056H.grib2 2026-04-19 20:56 1.2M
20260419T18Z_MSC_RDPS_DewPointDepression_AGL-2m_RLatLon0.09_PT056H.grib2 2026-04-19 20:56 405K
20260419T18Z_MSC_RDPS_DewPointDepression_IsbL-0001_RLatLon0.09_PT056H.grib2 2026-04-19 20:56 193
20260419T18Z_MSC_RDPS_DewPointDepression_IsbL-0005_RLatLon0.09_PT056H.grib2 2026-04-19 20:56 193
20260419T18Z_MSC_RDPS_DewPointDepression_IsbL-0010_RLatLon0.09_PT056H.grib2 2026-04-19 20:56 193
20260419T18Z_MSC_RDPS_DewPointDepression_IsbL-0020_RLatLon0.09_PT056H.grib2 2026-04-19 20:56 193
20260419T18Z_MSC_RDPS_DewPointDepression_IsbL-0030_RLatLon0.09_PT056H.grib2 2026-04-19 20:56 193
20260419T18Z_MSC_RDPS_DewPointDepression_IsbL-0050_RLatLon0.09_PT056H.grib2 2026-04-19 20:56 102K
20260419T18Z_MSC_RDPS_DewPointDepression_IsbL-0100_RLatLon0.09_PT056H.grib2 2026-04-19 20:56 128K
20260419T18Z_MSC_RDPS_DewPointDepression_IsbL-0150_RLatLon0.09_PT056H.grib2 2026-04-19 20:56 153K
20260419T18Z_MSC_RDPS_DewPointDepression_IsbL-0175_RLatLon0.09_PT056H.grib2 2026-04-19 20:56 194K
20260419T18Z_MSC_RDPS_DewPointDepression_IsbL-0200_RLatLon0.09_PT056H.grib2 2026-04-19 20:56 233K
20260419T18Z_MSC_RDPS_DewPointDepression_IsbL-0225_RLatLon0.09_PT056H.grib2 2026-04-19 20:56 262K
20260419T18Z_MSC_RDPS_DewPointDepression_IsbL-0250_RLatLon0.09_PT056H.grib2 2026-04-19 20:56 301K
20260419T18Z_MSC_RDPS_DewPointDepression_IsbL-0275_RLatLon0.09_PT056H.grib2 2026-04-19 20:56 310K
20260419T18Z_MSC_RDPS_DewPointDepression_IsbL-0300_RLatLon0.09_PT056H.grib2 2026-04-19 20:56 331K
20260419T18Z_MSC_RDPS_DewPointDepression_IsbL-0350_RLatLon0.09_PT056H.grib2 2026-04-19 20:56 338K
20260419T18Z_MSC_RDPS_DewPointDepression_IsbL-0400_RLatLon0.09_PT056H.grib2 2026-04-19 20:56 350K
20260419T18Z_MSC_RDPS_DewPointDepression_IsbL-0450_RLatLon0.09_PT056H.grib2 2026-04-19 20:56 360K
20260419T18Z_MSC_RDPS_DewPointDepression_IsbL-0500_RLatLon0.09_PT056H.grib2 2026-04-19 20:56 371K
20260419T18Z_MSC_RDPS_DewPointDepression_IsbL-0550_RLatLon0.09_PT056H.grib2 2026-04-19 20:56 386K
20260419T18Z_MSC_RDPS_DewPointDepression_IsbL-0600_RLatLon0.09_PT056H.grib2 2026-04-19 20:56 398K
20260419T18Z_MSC_RDPS_DewPointDepression_IsbL-0650_RLatLon0.09_PT056H.grib2 2026-04-19 20:56 395K
20260419T18Z_MSC_RDPS_DewPointDepression_IsbL-0700_RLatLon0.09_PT056H.grib2 2026-04-19 20:56 399K
20260419T18Z_MSC_RDPS_DewPointDepression_IsbL-0750_RLatLon0.09_PT056H.grib2 2026-04-19 20:56 418K
20260419T18Z_MSC_RDPS_DewPointDepression_IsbL-0800_RLatLon0.09_PT056H.grib2 2026-04-19 20:56 454K
20260419T18Z_MSC_RDPS_DewPointDepression_IsbL-0850_RLatLon0.09_PT056H.grib2 2026-04-19 20:56 470K
20260419T18Z_MSC_RDPS_DewPointDepression_IsbL-0875_RLatLon0.09_PT056H.grib2 2026-04-19 20:56 461K
20260419T18Z_MSC_RDPS_DewPointDepression_IsbL-0900_RLatLon0.09_PT056H.grib2 2026-04-19 20:56 454K
20260419T18Z_MSC_RDPS_DewPointDepression_IsbL-0925_RLatLon0.09_PT056H.grib2 2026-04-19 20:56 447K
20260419T18Z_MSC_RDPS_DewPointDepression_IsbL-0950_RLatLon0.09_PT056H.grib2 2026-04-19 20:56 442K
20260419T18Z_MSC_RDPS_DewPointDepression_IsbL-0970_RLatLon0.09_PT056H.grib2 2026-04-19 20:56 435K
20260419T18Z_MSC_RDPS_DewPointDepression_IsbL-0985_RLatLon0.09_PT056H.grib2 2026-04-19 20:56 431K
20260419T18Z_MSC_RDPS_DewPointDepression_IsbL-1000_RLatLon0.09_PT056H.grib2 2026-04-19 20:56 422K
20260419T18Z_MSC_RDPS_DewPointDepression_IsbL-1015_RLatLon0.09_PT056H.grib2 2026-04-19 20:56 412K
20260419T18Z_MSC_RDPS_DewPoint_AGL-2m_RLatLon0.09_PT056H.grib2 2026-04-19 20:56 391K
20260419T18Z_MSC_RDPS_DownwardLongwaveRadiationFlux-Accum_Sfc_RLatLon0.09_PT056H.grib2 2026-04-19 20:56 381K
20260419T18Z_MSC_RDPS_DownwardShortwaveRadiationFlux-Accum_NTAtm_RLatLon0.09_PT056H.grib2 2026-04-19 20:56 106K
20260419T18Z_MSC_RDPS_DownwardShortwaveRadiationFlux-Accum_Sfc_RLatLon0.09_PT056H.grib2 2026-04-19 20:56 576K
20260419T18Z_MSC_RDPS_FreezingRain-Accum1h_Sfc_RLatLon0.09_PT056H.grib2 2026-04-19 20:56 20K
20260419T18Z_MSC_RDPS_FreezingRain-Accum_Sfc_RLatLon0.09_PT056H.grib2 2026-04-19 20:56 137K
20260419T18Z_MSC_RDPS_GeopotentialHeight_IsbL-0001_RLatLon0.09_PT056H.grib2 2026-04-19 20:56 270K
20260419T18Z_MSC_RDPS_GeopotentialHeight_IsbL-0005_RLatLon0.09_PT056H.grib2 2026-04-19 20:56 236K
20260419T18Z_MSC_RDPS_GeopotentialHeight_IsbL-0010_RLatLon0.09_PT056H.grib2 2026-04-19 20:56 311K
20260419T18Z_MSC_RDPS_GeopotentialHeight_IsbL-0020_RLatLon0.09_PT056H.grib2 2026-04-19 20:56 307K
20260419T18Z_MSC_RDPS_GeopotentialHeight_IsbL-0030_RLatLon0.09_PT056H.grib2 2026-04-19 20:56 310K
20260419T18Z_MSC_RDPS_GeopotentialHeight_IsbL-0050_RLatLon0.09_PT056H.grib2 2026-04-19 20:56 346K
20260419T18Z_MSC_RDPS_GeopotentialHeight_IsbL-0100_RLatLon0.09_PT056H.grib2 2026-04-19 20:56 294K
20260419T18Z_MSC_RDPS_GeopotentialHeight_IsbL-0150_RLatLon0.09_PT056H.grib2 2026-04-19 20:56 264K
20260419T18Z_MSC_RDPS_GeopotentialHeight_IsbL-0175_RLatLon0.09_PT056H.grib2 2026-04-19 20:56 267K
20260419T18Z_MSC_RDPS_GeopotentialHeight_IsbL-0200_RLatLon0.09_PT056H.grib2 2026-04-19 20:56 269K
20260419T18Z_MSC_RDPS_GeopotentialHeight_IsbL-0225_RLatLon0.09_PT056H.grib2 2026-04-19 20:56 270K
20260419T18Z_MSC_RDPS_GeopotentialHeight_IsbL-0250_RLatLon0.09_PT056H.grib2 2026-04-19 20:56 271K
20260419T18Z_MSC_RDPS_GeopotentialHeight_IsbL-0275_RLatLon0.09_PT056H.grib2 2026-04-19 20:56 269K
20260419T18Z_MSC_RDPS_GeopotentialHeight_IsbL-0300_RLatLon0.09_PT056H.grib2 2026-04-19 20:56 268K
20260419T18Z_MSC_RDPS_GeopotentialHeight_IsbL-0350_RLatLon0.09_PT056H.grib2 2026-04-19 20:56 234K
20260419T18Z_MSC_RDPS_GeopotentialHeight_IsbL-0400_RLatLon0.09_PT056H.grib2 2026-04-19 20:56 231K
20260419T18Z_MSC_RDPS_GeopotentialHeight_IsbL-0450_RLatLon0.09_PT056H.grib2 2026-04-19 20:56 301K
20260419T18Z_MSC_RDPS_GeopotentialHeight_IsbL-0500_RLatLon0.09_PT056H.grib2 2026-04-19 20:56 297K
20260419T18Z_MSC_RDPS_GeopotentialHeight_IsbL-0550_RLatLon0.09_PT056H.grib2 2026-04-19 20:56 294K
20260419T18Z_MSC_RDPS_GeopotentialHeight_IsbL-0600_RLatLon0.09_PT056H.grib2 2026-04-19 20:56 290K
20260419T18Z_MSC_RDPS_GeopotentialHeight_IsbL-0650_RLatLon0.09_PT056H.grib2 2026-04-19 20:56 259K
20260419T18Z_MSC_RDPS_GeopotentialHeight_IsbL-0700_RLatLon0.09_PT056H.grib2 2026-04-19 20:56 256K
20260419T18Z_MSC_RDPS_GeopotentialHeight_IsbL-0750_RLatLon0.09_PT056H.grib2 2026-04-19 20:56 256K
20260419T18Z_MSC_RDPS_GeopotentialHeight_IsbL-0800_RLatLon0.09_PT056H.grib2 2026-04-19 20:56 262K
20260419T18Z_MSC_RDPS_GeopotentialHeight_IsbL-0850_RLatLon0.09_PT056H.grib2 2026-04-19 20:56 267K
20260419T18Z_MSC_RDPS_GeopotentialHeight_IsbL-0875_RLatLon0.09_PT056H.grib2 2026-04-19 20:56 268K
20260419T18Z_MSC_RDPS_GeopotentialHeight_IsbL-0900_RLatLon0.09_PT056H.grib2 2026-04-19 20:56 272K
20260419T18Z_MSC_RDPS_GeopotentialHeight_IsbL-0925_RLatLon0.09_PT056H.grib2 2026-04-19 20:56 275K
20260419T18Z_MSC_RDPS_GeopotentialHeight_IsbL-0950_RLatLon0.09_PT056H.grib2 2026-04-19 20:56 278K
20260419T18Z_MSC_RDPS_GeopotentialHeight_IsbL-0970_RLatLon0.09_PT056H.grib2 2026-04-19 20:56 283K
20260419T18Z_MSC_RDPS_GeopotentialHeight_IsbL-0985_RLatLon0.09_PT056H.grib2 2026-04-19 20:56 290K
20260419T18Z_MSC_RDPS_GeopotentialHeight_IsbL-1000_RLatLon0.09_PT056H.grib2 2026-04-19 20:56 299K
20260419T18Z_MSC_RDPS_GeopotentialHeight_IsbL-1015_RLatLon0.09_PT056H.grib2 2026-04-19 20:56 310K
20260419T18Z_MSC_RDPS_Humidex_Sfc_RLatLon0.09_PT056H.grib2 2026-04-19 20:56 2.4M
20260419T18Z_MSC_RDPS_IcePellets-Accum1h_Sfc_RLatLon0.09_PT056H.grib2 2026-04-19 20:56 9.0K
20260419T18Z_MSC_RDPS_IcePellets-Accum_Sfc_RLatLon0.09_PT056H.grib2 2026-04-19 20:56 24K
20260419T18Z_MSC_RDPS_KIndex_Sfc_RLatLon0.09_PT056H.grib2 2026-04-19 20:56 2.4M
20260419T18Z_MSC_RDPS_LatentHeatNetFlux_Sfc_RLatLon0.09_PT056H.grib2 2026-04-19 20:56 323K
20260419T18Z_MSC_RDPS_LiftedIndex-MU-VT_IsbL-0500_RLatLon0.09_PT056H.grib2 2026-04-19 20:56 2.4M
20260419T18Z_MSC_RDPS_NetLongwaveRadiationFlux-Accum_Sfc_RLatLon0.09_PT056H.grib2 2026-04-19 20:56 569K
20260419T18Z_MSC_RDPS_NetShortwaveRadiationFlux-Accum_Sfc_RLatLon0.09_PT056H.grib2 2026-04-19 20:56 592K
20260419T18Z_MSC_RDPS_PlanetaryBoundaryLayerHeight_Sfc_RLatLon0.09_PT056H.grib2 2026-04-19 20:56 1.0M
20260419T18Z_MSC_RDPS_Precip-Accum1h_Sfc_RLatLon0.09_PT056H.grib2 2026-04-19 20:56 1.2M
20260419T18Z_MSC_RDPS_Precip-Accum_Sfc_RLatLon0.09_PT056H.grib2 2026-04-19 20:56 2.0M
20260419T18Z_MSC_RDPS_PrecipRate_Sfc_RLatLon0.09_PT056H.grib2 2026-04-19 20:56 168K
20260419T18Z_MSC_RDPS_PrecipType-Instant_Sfc_RLatLon0.09_PT056H.grib2 2026-04-19 20:56 583K
20260419T18Z_MSC_RDPS_Pressure-Trend3h_Sfc_RLatLon0.09_PT056H.grib2 2026-04-19 20:56 1.2M
20260419T18Z_MSC_RDPS_Pressure_MSL_RLatLon0.09_PT056H.grib2 2026-04-19 20:56 327K
20260419T18Z_MSC_RDPS_Pressure_PVU-1.5_RLatLon0.09_PT056H.grib2 2026-04-19 20:56 2.3M
20260419T18Z_MSC_RDPS_Pressure_PVU-1_RLatLon0.09_PT056H.grib2 2026-04-19 20:56 2.4M
20260419T18Z_MSC_RDPS_Pressure_PVU-2_RLatLon0.09_PT056H.grib2 2026-04-19 20:56 2.4M
20260419T18Z_MSC_RDPS_Pressure_Sfc_RLatLon0.09_PT056H.grib2 2026-04-19 20:56 500K
20260419T18Z_MSC_RDPS_RadiativeTemp_Sfc_RLatLon0.09_PT056H.grib2 2026-04-19 20:56 311K
20260419T18Z_MSC_RDPS_Rain-Accum1h_Sfc_RLatLon0.09_PT056H.grib2 2026-04-19 20:56 544K
20260419T18Z_MSC_RDPS_Rain-Accum_Sfc_RLatLon0.09_PT056H.grib2 2026-04-19 20:56 1.6M
20260419T18Z_MSC_RDPS_RelativeHumidity_AGL-2m_RLatLon0.09_PT056H.grib2 2026-04-19 20:56 1.0M
20260419T18Z_MSC_RDPS_RelativeHumidity_IsbL-0010_RLatLon0.09_PT056H.grib2 2026-04-19 20:56 622K
20260419T18Z_MSC_RDPS_RelativeHumidity_IsbL-0020_RLatLon0.09_PT056H.grib2 2026-04-19 20:56 570K
20260419T18Z_MSC_RDPS_RelativeHumidity_IsbL-0030_RLatLon0.09_PT056H.grib2 2026-04-19 20:56 547K
20260419T18Z_MSC_RDPS_RelativeHumidity_IsbL-0050_RLatLon0.09_PT056H.grib2 2026-04-19 20:56 264K
20260419T18Z_MSC_RDPS_RelativeHumidity_IsbL-0100_RLatLon0.09_PT056H.grib2 2026-04-19 20:56 269K
20260419T18Z_MSC_RDPS_RelativeHumidity_IsbL-0150_RLatLon0.09_PT056H.grib2 2026-04-19 20:56 380K
20260419T18Z_MSC_RDPS_RelativeHumidity_IsbL-0175_RLatLon0.09_PT056H.grib2 2026-04-19 20:56 477K
20260419T18Z_MSC_RDPS_RelativeHumidity_IsbL-0200_RLatLon0.09_PT056H.grib2 2026-04-19 20:56 567K
20260419T18Z_MSC_RDPS_RelativeHumidity_IsbL-0225_RLatLon0.09_PT056H.grib2 2026-04-19 20:56 638K
20260419T18Z_MSC_RDPS_RelativeHumidity_IsbL-0250_RLatLon0.09_PT056H.grib2 2026-04-19 20:56 702K
20260419T18Z_MSC_RDPS_RelativeHumidity_IsbL-0275_RLatLon0.09_PT056H.grib2 2026-04-19 20:56 717K
20260419T18Z_MSC_RDPS_RelativeHumidity_IsbL-0300_RLatLon0.09_PT056H.grib2 2026-04-19 20:56 755K
20260419T18Z_MSC_RDPS_RelativeHumidity_IsbL-0350_RLatLon0.09_PT056H.grib2 2026-04-19 20:56 772K
20260419T18Z_MSC_RDPS_RelativeHumidity_IsbL-0400_RLatLon0.09_PT056H.grib2 2026-04-19 20:56 788K
20260419T18Z_MSC_RDPS_RelativeHumidity_IsbL-0450_RLatLon0.09_PT056H.grib2 2026-04-19 20:56 799K
20260419T18Z_MSC_RDPS_RelativeHumidity_IsbL-0500_RLatLon0.09_PT056H.grib2 2026-04-19 20:56 814K
20260419T18Z_MSC_RDPS_RelativeHumidity_IsbL-0550_RLatLon0.09_PT056H.grib2 2026-04-19 20:56 848K
20260419T18Z_MSC_RDPS_RelativeHumidity_IsbL-0600_RLatLon0.09_PT056H.grib2 2026-04-19 20:56 868K
20260419T18Z_MSC_RDPS_RelativeHumidity_IsbL-0650_RLatLon0.09_PT056H.grib2 2026-04-19 20:56 862K
20260419T18Z_MSC_RDPS_RelativeHumidity_IsbL-0700_RLatLon0.09_PT056H.grib2 2026-04-19 20:56 882K
20260419T18Z_MSC_RDPS_RelativeHumidity_IsbL-0750_RLatLon0.09_PT056H.grib2 2026-04-19 20:56 912K
20260419T18Z_MSC_RDPS_RelativeHumidity_IsbL-0800_RLatLon0.09_PT056H.grib2 2026-04-19 20:56 1.0M
20260419T18Z_MSC_RDPS_RelativeHumidity_IsbL-0850_RLatLon0.09_PT056H.grib2 2026-04-19 20:56 1.0M
20260419T18Z_MSC_RDPS_RelativeHumidity_IsbL-0875_RLatLon0.09_PT056H.grib2 2026-04-19 20:56 1.0M
20260419T18Z_MSC_RDPS_RelativeHumidity_IsbL-0900_RLatLon0.09_PT056H.grib2 2026-04-19 20:56 1.0M
20260419T18Z_MSC_RDPS_RelativeHumidity_IsbL-0925_RLatLon0.09_PT056H.grib2 2026-04-19 20:56 1.0M
20260419T18Z_MSC_RDPS_RelativeHumidity_IsbL-0950_RLatLon0.09_PT056H.grib2 2026-04-19 20:56 1.1M
20260419T18Z_MSC_RDPS_RelativeHumidity_IsbL-0970_RLatLon0.09_PT056H.grib2 2026-04-19 20:56 1.0M
20260419T18Z_MSC_RDPS_RelativeHumidity_IsbL-0985_RLatLon0.09_PT056H.grib2 2026-04-19 20:56 1.0M
20260419T18Z_MSC_RDPS_RelativeHumidity_IsbL-1000_RLatLon0.09_PT056H.grib2 2026-04-19 20:56 1.0M
20260419T18Z_MSC_RDPS_RelativeHumidity_IsbL-1015_RLatLon0.09_PT056H.grib2 2026-04-19 20:56 1.0M
20260419T18Z_MSC_RDPS_Runoff-Accum_Sfc_RLatLon0.09_PT056H.grib2 2026-04-19 20:56 60K
20260419T18Z_MSC_RDPS_SWEATIndex_Sfc_RLatLon0.09_PT056H.grib2 2026-04-19 20:56 2.4M
20260419T18Z_MSC_RDPS_SeeingIndex_EAtm_RLatLon0.09_PT056H.grib2 2026-04-19 20:56 1.0M
20260419T18Z_MSC_RDPS_SensibleHeatNetFlux_Sfc_RLatLon0.09_PT056H.grib2 2026-04-19 20:56 303K
20260419T18Z_MSC_RDPS_ShowalterIndex_IsbL-0500_RLatLon0.09_PT056H.grib2 2026-04-19 20:56 2.6M
20260419T18Z_MSC_RDPS_SkyTransparencyIndex_EAtm_RLatLon0.09_PT056H.grib2 2026-04-19 20:56 714K
20260419T18Z_MSC_RDPS_Snow-Accum1h_Sfc_RLatLon0.09_PT056H.grib2 2026-04-19 20:56 450K
20260419T18Z_MSC_RDPS_Snow-Accum_Sfc_RLatLon0.09_PT056H.grib2 2026-04-19 20:56 672K
20260419T18Z_MSC_RDPS_SnowDensity_Sfc_RLatLon0.09_PT056H.grib2 2026-04-19 20:56 172K
20260419T18Z_MSC_RDPS_SnowDepth_Sfc_RLatLon0.09_PT056H.grib2 2026-04-19 20:56 710K
20260419T18Z_MSC_RDPS_SoilTemp_DBS-0to10cm_RLatLon0.09_PT056H.grib2 2026-04-19 20:56 244K
20260419T18Z_MSC_RDPS_SoilTemp_Sfc_RLatLon0.09_PT056H.grib2 2026-04-19 20:56 284K
20260419T18Z_MSC_RDPS_SoilVolumetricIceContent_Sfc_RLatLon0.09_PT056H.grib2 2026-04-19 20:56 170K
20260419T18Z_MSC_RDPS_SoilVolumetricWaterContent_DBS-0to10cm_RLatLon0.09_PT056H.grib2 2026-04-19 20:56 251K
20260419T18Z_MSC_RDPS_SoilVolumetricWaterContent_DBS-0to1cm_RLatLon0.09_PT056H.grib2 2026-04-19 20:56 338K
20260419T18Z_MSC_RDPS_SpecificHumidity_AGL-120m_RLatLon0.09_PT056H.grib2 2026-04-19 20:56 474K
20260419T18Z_MSC_RDPS_SpecificHumidity_AGL-2m_RLatLon0.09_PT056H.grib2 2026-04-19 20:56 640K
20260419T18Z_MSC_RDPS_SpecificHumidity_AGL-40m_RLatLon0.09_PT056H.grib2 2026-04-19 20:56 480K
20260419T18Z_MSC_RDPS_SpecificHumidity_AGL-80m_RLatLon0.09_PT056H.grib2 2026-04-19 20:56 475K
20260419T18Z_MSC_RDPS_SpecificHumidity_IsbL-0001_RLatLon0.09_PT056H.grib2 2026-04-19 20:56 322K
20260419T18Z_MSC_RDPS_SpecificHumidity_IsbL-0005_RLatLon0.09_PT056H.grib2 2026-04-19 20:56 404K
20260419T18Z_MSC_RDPS_SpecificHumidity_IsbL-0010_RLatLon0.09_PT056H.grib2 2026-04-19 20:56 375K
20260419T18Z_MSC_RDPS_SpecificHumidity_IsbL-0020_RLatLon0.09_PT056H.grib2 2026-04-19 20:56 369K
20260419T18Z_MSC_RDPS_SpecificHumidity_IsbL-0030_RLatLon0.09_PT056H.grib2 2026-04-19 20:56 441K
20260419T18Z_MSC_RDPS_SpecificHumidity_IsbL-0050_RLatLon0.09_PT056H.grib2 2026-04-19 20:56 468K
20260419T18Z_MSC_RDPS_SpecificHumidity_IsbL-0100_RLatLon0.09_PT056H.grib2 2026-04-19 20:56 415K
20260419T18Z_MSC_RDPS_SpecificHumidity_IsbL-0150_RLatLon0.09_PT056H.grib2 2026-04-19 20:56 440K
20260419T18Z_MSC_RDPS_SpecificHumidity_IsbL-0175_RLatLon0.09_PT056H.grib2 2026-04-19 20:56 536K
20260419T18Z_MSC_RDPS_SpecificHumidity_IsbL-0200_RLatLon0.09_PT056H.grib2 2026-04-19 20:56 453K
20260419T18Z_MSC_RDPS_SpecificHumidity_IsbL-0225_RLatLon0.09_PT056H.grib2 2026-04-19 20:56 562K
20260419T18Z_MSC_RDPS_SpecificHumidity_IsbL-0250_RLatLon0.09_PT056H.grib2 2026-04-19 20:56 564K
20260419T18Z_MSC_RDPS_SpecificHumidity_IsbL-0275_RLatLon0.09_PT056H.grib2 2026-04-19 20:56 478K
20260419T18Z_MSC_RDPS_SpecificHumidity_IsbL-0300_RLatLon0.09_PT056H.grib2 2026-04-19 20:56 547K
20260419T18Z_MSC_RDPS_SpecificHumidity_IsbL-0350_RLatLon0.09_PT056H.grib2 2026-04-19 20:56 539K
20260419T18Z_MSC_RDPS_SpecificHumidity_IsbL-0400_RLatLon0.09_PT056H.grib2 2026-04-19 20:56 520K
20260419T18Z_MSC_RDPS_SpecificHumidity_IsbL-0450_RLatLon0.09_PT056H.grib2 2026-04-19 20:56 577K
20260419T18Z_MSC_RDPS_SpecificHumidity_IsbL-0500_RLatLon0.09_PT056H.grib2 2026-04-19 20:56 519K
20260419T18Z_MSC_RDPS_SpecificHumidity_IsbL-0550_RLatLon0.09_PT056H.grib2 2026-04-19 20:56 581K
20260419T18Z_MSC_RDPS_SpecificHumidity_IsbL-0600_RLatLon0.09_PT056H.grib2 2026-04-19 20:56 650K
20260419T18Z_MSC_RDPS_SpecificHumidity_IsbL-0650_RLatLon0.09_PT056H.grib2 2026-04-19 20:56 559K
20260419T18Z_MSC_RDPS_SpecificHumidity_IsbL-0700_RLatLon0.09_PT056H.grib2 2026-04-19 20:56 592K
20260419T18Z_MSC_RDPS_SpecificHumidity_IsbL-0750_RLatLon0.09_PT056H.grib2 2026-04-19 20:56 643K
20260419T18Z_MSC_RDPS_SpecificHumidity_IsbL-0800_RLatLon0.09_PT056H.grib2 2026-04-19 20:56 721K
20260419T18Z_MSC_RDPS_SpecificHumidity_IsbL-0850_RLatLon0.09_PT056H.grib2 2026-04-19 20:56 796K
20260419T18Z_MSC_RDPS_SpecificHumidity_IsbL-0875_RLatLon0.09_PT056H.grib2 2026-04-19 20:56 809K
20260419T18Z_MSC_RDPS_SpecificHumidity_IsbL-0900_RLatLon0.09_PT056H.grib2 2026-04-19 20:56 819K
20260419T18Z_MSC_RDPS_SpecificHumidity_IsbL-0925_RLatLon0.09_PT056H.grib2 2026-04-19 20:56 823K
20260419T18Z_MSC_RDPS_SpecificHumidity_IsbL-0950_RLatLon0.09_PT056H.grib2 2026-04-19 20:56 823K
20260419T18Z_MSC_RDPS_SpecificHumidity_IsbL-0970_RLatLon0.09_PT056H.grib2 2026-04-19 20:56 816K
20260419T18Z_MSC_RDPS_SpecificHumidity_IsbL-0985_RLatLon0.09_PT056H.grib2 2026-04-19 20:56 669K
20260419T18Z_MSC_RDPS_SpecificHumidity_IsbL-1000_RLatLon0.09_PT056H.grib2 2026-04-19 20:56 659K
20260419T18Z_MSC_RDPS_SpecificHumidity_IsbL-1015_RLatLon0.09_PT056H.grib2 2026-04-19 20:56 652K
20260419T18Z_MSC_RDPS_SpecificHumidity_Sfc_RLatLon0.09_PT056H.grib2 2026-04-19 20:56 303K
20260419T18Z_MSC_RDPS_StormRelativeHelicity_EtaL-10000_RLatLon0.09_PT056H.grib2 2026-04-19 20:56 1.2M
20260419T18Z_MSC_RDPS_StormSeverityIndex_EtaL-10000_RLatLon0.09_PT056H.grib2 2026-04-19 20:56 1.2M
20260419T18Z_MSC_RDPS_Thickness_IsbL-0850to0700_RLatLon0.09_PT056H.grib2 2026-04-19 20:56 178K
20260419T18Z_MSC_RDPS_Thickness_IsbL-1000to0500_RLatLon0.09_PT056H.grib2 2026-04-19 20:56 202K
20260419T18Z_MSC_RDPS_Thickness_IsbL-1000to0850_RLatLon0.09_PT056H.grib2 2026-04-19 20:56 185K
20260419T18Z_MSC_RDPS_TotalCloudCover_Sfc_RLatLon0.09_PT056H.grib2 2026-04-19 20:56 650K
20260419T18Z_MSC_RDPS_TotalTotalsIndex_Sfc_RLatLon0.09_PT056H.grib2 2026-04-19 20:56 2.4M
20260419T18Z_MSC_RDPS_UVIndex-ClearSky_Sfc_RLatLon0.09_PT056H.grib2 2026-04-19 20:56 111K
20260419T18Z_MSC_RDPS_UVIndex_Sfc_RLatLon0.09_PT056H.grib2 2026-04-19 20:56 231K
20260419T18Z_MSC_RDPS_UpwardLongwaveRadiationFlux_NTAtm_RLatLon0.09_PT056H.grib2 2026-04-19 20:56 488K
20260419T18Z_MSC_RDPS_UpwardShortwaveRadiationFlux_NTAtm_RLatLon0.09_PT056H.grib2 2026-04-19 20:56 225K
20260419T18Z_MSC_RDPS_VerticalVelocity_IsbL-0250_RLatLon0.09_PT056H.grib2 2026-04-19 20:56 590K
20260419T18Z_MSC_RDPS_VerticalVelocity_IsbL-0500_RLatLon0.09_PT056H.grib2 2026-04-19 20:56 558K
20260419T18Z_MSC_RDPS_VerticalVelocity_IsbL-0700_RLatLon0.09_PT056H.grib2 2026-04-19 20:56 607K
20260419T18Z_MSC_RDPS_VerticalVelocity_IsbL-0850_RLatLon0.09_PT056H.grib2 2026-04-19 20:56 651K
20260419T18Z_MSC_RDPS_VerticalWindShear_EtaL-6500_RLatLon0.09_PT056H.grib2 2026-04-19 20:56 1.2M
20260419T18Z_MSC_RDPS_WindChill_Sfc_RLatLon0.09_PT056H.grib2 2026-04-19 20:56 1.2M
20260419T18Z_MSC_RDPS_WindDir_AGL-10m_RLatLon0.09_PT056H.grib2 2026-04-19 20:56 955K
20260419T18Z_MSC_RDPS_WindDir_AGL-120m_RLatLon0.09_PT056H.grib2 2026-04-19 20:56 597K
20260419T18Z_MSC_RDPS_WindDir_AGL-40m_RLatLon0.09_PT056H.grib2 2026-04-19 20:56 624K
20260419T18Z_MSC_RDPS_WindDir_AGL-80m_RLatLon0.09_PT056H.grib2 2026-04-19 20:56 607K
20260419T18Z_MSC_RDPS_WindDir_IsbL-0001_RLatLon0.09_PT056H.grib2 2026-04-19 20:56 269K
20260419T18Z_MSC_RDPS_WindDir_IsbL-0005_RLatLon0.09_PT056H.grib2 2026-04-19 20:56 364K
20260419T18Z_MSC_RDPS_WindDir_IsbL-0010_RLatLon0.09_PT056H.grib2 2026-04-19 20:56 401K
20260419T18Z_MSC_RDPS_WindDir_IsbL-0020_RLatLon0.09_PT056H.grib2 2026-04-19 20:56 408K
20260419T18Z_MSC_RDPS_WindDir_IsbL-0030_RLatLon0.09_PT056H.grib2 2026-04-19 20:56 406K
20260419T18Z_MSC_RDPS_WindDir_IsbL-0050_RLatLon0.09_PT056H.grib2 2026-04-19 20:56 418K
20260419T18Z_MSC_RDPS_WindDir_IsbL-0100_RLatLon0.09_PT056H.grib2 2026-04-19 20:56 422K
20260419T18Z_MSC_RDPS_WindDir_IsbL-0150_RLatLon0.09_PT056H.grib2 2026-04-19 20:56 420K
20260419T18Z_MSC_RDPS_WindDir_IsbL-0175_RLatLon0.09_PT056H.grib2 2026-04-19 20:56 439K
20260419T18Z_MSC_RDPS_WindDir_IsbL-0200_RLatLon0.09_PT056H.grib2 2026-04-19 20:56 449K
20260419T18Z_MSC_RDPS_WindDir_IsbL-0225_RLatLon0.09_PT056H.grib2 2026-04-19 20:56 447K
20260419T18Z_MSC_RDPS_WindDir_IsbL-0250_RLatLon0.09_PT056H.grib2 2026-04-19 20:56 443K
20260419T18Z_MSC_RDPS_WindDir_IsbL-0275_RLatLon0.09_PT056H.grib2 2026-04-19 20:56 461K
20260419T18Z_MSC_RDPS_WindDir_IsbL-0300_RLatLon0.09_PT056H.grib2 2026-04-19 20:56 458K
20260419T18Z_MSC_RDPS_WindDir_IsbL-0350_RLatLon0.09_PT056H.grib2 2026-04-19 20:56 479K
20260419T18Z_MSC_RDPS_WindDir_IsbL-0400_RLatLon0.09_PT056H.grib2 2026-04-19 20:56 500K
20260419T18Z_MSC_RDPS_WindDir_IsbL-0450_RLatLon0.09_PT056H.grib2 2026-04-19 20:56 520K
20260419T18Z_MSC_RDPS_WindDir_IsbL-0500_RLatLon0.09_PT056H.grib2 2026-04-19 20:56 540K
20260419T18Z_MSC_RDPS_WindDir_IsbL-0550_RLatLon0.09_PT056H.grib2 2026-04-19 20:56 562K
20260419T18Z_MSC_RDPS_WindDir_IsbL-0600_RLatLon0.09_PT056H.grib2 2026-04-19 20:56 588K
20260419T18Z_MSC_RDPS_WindDir_IsbL-0650_RLatLon0.09_PT056H.grib2 2026-04-19 20:56 630K
20260419T18Z_MSC_RDPS_WindDir_IsbL-0700_RLatLon0.09_PT056H.grib2 2026-04-19 20:56 673K
20260419T18Z_MSC_RDPS_WindDir_IsbL-0750_RLatLon0.09_PT056H.grib2 2026-04-19 20:56 723K
20260419T18Z_MSC_RDPS_WindDir_IsbL-0800_RLatLon0.09_PT056H.grib2 2026-04-19 20:56 798K
20260419T18Z_MSC_RDPS_WindDir_IsbL-0850_RLatLon0.09_PT056H.grib2 2026-04-19 20:56 869K
20260419T18Z_MSC_RDPS_WindDir_IsbL-0875_RLatLon0.09_PT056H.grib2 2026-04-19 20:56 892K
20260419T18Z_MSC_RDPS_WindDir_IsbL-0900_RLatLon0.09_PT056H.grib2 2026-04-19 20:56 901K
20260419T18Z_MSC_RDPS_WindDir_IsbL-0925_RLatLon0.09_PT056H.grib2 2026-04-19 20:56 910K
20260419T18Z_MSC_RDPS_WindDir_IsbL-0950_RLatLon0.09_PT056H.grib2 2026-04-19 20:56 905K
20260419T18Z_MSC_RDPS_WindDir_IsbL-0970_RLatLon0.09_PT056H.grib2 2026-04-19 20:56 909K
20260419T18Z_MSC_RDPS_WindDir_IsbL-0985_RLatLon0.09_PT056H.grib2 2026-04-19 20:56 916K
20260419T18Z_MSC_RDPS_WindDir_IsbL-1000_RLatLon0.09_PT056H.grib2 2026-04-19 20:56 930K
20260419T18Z_MSC_RDPS_WindDir_IsbL-1015_RLatLon0.09_PT056H.grib2 2026-04-19 20:56 948K
20260419T18Z_MSC_RDPS_WindGust-Max_AGL-10m_RLatLon0.09_PT056H.grib2 2026-04-19 20:56 955K
20260419T18Z_MSC_RDPS_WindGust-Min_AGL-10m_RLatLon0.09_PT056H.grib2 2026-04-19 20:56 1.0M
20260419T18Z_MSC_RDPS_WindGust_AGL-10m_RLatLon0.09_PT056H.grib2 2026-04-19 20:56 1.0M
20260419T18Z_MSC_RDPS_WindSpeed_AGL-10m_RLatLon0.09_PT056H.grib2 2026-04-19 20:56 840K
20260419T18Z_MSC_RDPS_WindSpeed_AGL-120m_RLatLon0.09_PT056H.grib2 2026-04-19 20:56 538K
20260419T18Z_MSC_RDPS_WindSpeed_AGL-40m_RLatLon0.09_PT056H.grib2 2026-04-19 20:56 673K
20260419T18Z_MSC_RDPS_WindSpeed_AGL-80m_RLatLon0.09_PT056H.grib2 2026-04-19 20:56 540K
20260419T18Z_MSC_RDPS_WindSpeed_IsbL-0001_RLatLon0.09_PT056H.grib2 2026-04-19 20:56 242K
20260419T18Z_MSC_RDPS_WindSpeed_IsbL-0005_RLatLon0.09_PT056H.grib2 2026-04-19 20:56 297K
20260419T18Z_MSC_RDPS_WindSpeed_IsbL-0010_RLatLon0.09_PT056H.grib2 2026-04-19 20:56 314K
20260419T18Z_MSC_RDPS_WindSpeed_IsbL-0020_RLatLon0.09_PT056H.grib2 2026-04-19 20:56 333K
20260419T18Z_MSC_RDPS_WindSpeed_IsbL-0030_RLatLon0.09_PT056H.grib2 2026-04-19 20:56 332K
20260419T18Z_MSC_RDPS_WindSpeed_IsbL-0050_RLatLon0.09_PT056H.grib2 2026-04-19 20:56 480K
20260419T18Z_MSC_RDPS_WindSpeed_IsbL-0100_RLatLon0.09_PT056H.grib2 2026-04-19 20:56 497K
20260419T18Z_MSC_RDPS_WindSpeed_IsbL-0150_RLatLon0.09_PT056H.grib2 2026-04-19 20:56 385K
20260419T18Z_MSC_RDPS_WindSpeed_IsbL-0175_RLatLon0.09_PT056H.grib2 2026-04-19 20:56 411K
20260419T18Z_MSC_RDPS_WindSpeed_IsbL-0200_RLatLon0.09_PT056H.grib2 2026-04-19 20:56 427K
20260419T18Z_MSC_RDPS_WindSpeed_IsbL-0225_RLatLon0.09_PT056H.grib2 2026-04-19 20:56 433K
20260419T18Z_MSC_RDPS_WindSpeed_IsbL-0250_RLatLon0.09_PT056H.grib2 2026-04-19 20:56 451K
20260419T18Z_MSC_RDPS_WindSpeed_IsbL-0275_RLatLon0.09_PT056H.grib2 2026-04-19 20:56 464K
20260419T18Z_MSC_RDPS_WindSpeed_IsbL-0300_RLatLon0.09_PT056H.grib2 2026-04-19 20:56 459K
20260419T18Z_MSC_RDPS_WindSpeed_IsbL-0350_RLatLon0.09_PT056H.grib2 2026-04-19 20:56 469K
20260419T18Z_MSC_RDPS_WindSpeed_IsbL-0400_RLatLon0.09_PT056H.grib2 2026-04-19 20:56 474K
20260419T18Z_MSC_RDPS_WindSpeed_IsbL-0450_RLatLon0.09_PT056H.grib2 2026-04-19 20:56 479K
20260419T18Z_MSC_RDPS_WindSpeed_IsbL-0500_RLatLon0.09_PT056H.grib2 2026-04-19 20:56 466K
20260419T18Z_MSC_RDPS_WindSpeed_IsbL-0550_RLatLon0.09_PT056H.grib2 2026-04-19 20:56 588K
20260419T18Z_MSC_RDPS_WindSpeed_IsbL-0600_RLatLon0.09_PT056H.grib2 2026-04-19 20:56 599K
20260419T18Z_MSC_RDPS_WindSpeed_IsbL-0650_RLatLon0.09_PT056H.grib2 2026-04-19 20:56 615K
20260419T18Z_MSC_RDPS_WindSpeed_IsbL-0700_RLatLon0.09_PT056H.grib2 2026-04-19 20:56 635K
20260419T18Z_MSC_RDPS_WindSpeed_IsbL-0750_RLatLon0.09_PT056H.grib2 2026-04-19 20:56 707K
20260419T18Z_MSC_RDPS_WindSpeed_IsbL-0800_RLatLon0.09_PT056H.grib2 2026-04-19 20:56 761K
20260419T18Z_MSC_RDPS_WindSpeed_IsbL-0850_RLatLon0.09_PT056H.grib2 2026-04-19 20:56 820K
20260419T18Z_MSC_RDPS_WindSpeed_IsbL-0875_RLatLon0.09_PT056H.grib2 2026-04-19 20:56 838K
20260419T18Z_MSC_RDPS_WindSpeed_IsbL-0900_RLatLon0.09_PT056H.grib2 2026-04-19 20:56 851K
20260419T18Z_MSC_RDPS_WindSpeed_IsbL-0925_RLatLon0.09_PT056H.grib2 2026-04-19 20:56 862K
20260419T18Z_MSC_RDPS_WindSpeed_IsbL-0950_RLatLon0.09_PT056H.grib2 2026-04-19 20:56 862K
20260419T18Z_MSC_RDPS_WindSpeed_IsbL-0970_RLatLon0.09_PT056H.grib2 2026-04-19 20:56 860K
20260419T18Z_MSC_RDPS_WindSpeed_IsbL-0985_RLatLon0.09_PT056H.grib2 2026-04-19 20:56 857K
20260419T18Z_MSC_RDPS_WindSpeed_IsbL-1000_RLatLon0.09_PT056H.grib2 2026-04-19 20:56 851K
20260419T18Z_MSC_RDPS_WindSpeed_IsbL-1015_RLatLon0.09_PT056H.grib2 2026-04-19 20:56 844K
20260419T18Z_MSC_RDPS_WindU_AGL-10m_RLatLon0.09_PT056H.grib2 2026-04-19 20:56 431K
20260419T18Z_MSC_RDPS_WindU_AGL-120m_RLatLon0.09_PT056H.grib2 2026-04-19 20:56 535K
20260419T18Z_MSC_RDPS_WindU_AGL-40m_RLatLon0.09_PT056H.grib2 2026-04-19 20:56 538K
20260419T18Z_MSC_RDPS_WindU_AGL-80m_RLatLon0.09_PT056H.grib2 2026-04-19 20:56 536K
20260419T18Z_MSC_RDPS_WindU_IsbL-0001_RLatLon0.09_PT056H.grib2 2026-04-19 20:56 237K
20260419T18Z_MSC_RDPS_WindU_IsbL-0005_RLatLon0.09_PT056H.grib2 2026-04-19 20:56 334K
20260419T18Z_MSC_RDPS_WindU_IsbL-0010_RLatLon0.09_PT056H.grib2 2026-04-19 20:56 348K
20260419T18Z_MSC_RDPS_WindU_IsbL-0020_RLatLon0.09_PT056H.grib2 2026-04-19 20:56 364K
20260419T18Z_MSC_RDPS_WindU_IsbL-0030_RLatLon0.09_PT056H.grib2 2026-04-19 20:56 363K
20260419T18Z_MSC_RDPS_WindU_IsbL-0050_RLatLon0.09_PT056H.grib2 2026-04-19 20:56 368K
20260419T18Z_MSC_RDPS_WindU_IsbL-0100_RLatLon0.09_PT056H.grib2 2026-04-19 20:56 452K
20260419T18Z_MSC_RDPS_WindU_IsbL-0150_RLatLon0.09_PT056H.grib2 2026-04-19 20:56 380K
20260419T18Z_MSC_RDPS_WindU_IsbL-0175_RLatLon0.09_PT056H.grib2 2026-04-19 20:56 425K
20260419T18Z_MSC_RDPS_WindU_IsbL-0200_RLatLon0.09_PT056H.grib2 2026-04-19 20:56 441K
20260419T18Z_MSC_RDPS_WindU_IsbL-0225_RLatLon0.09_PT056H.grib2 2026-04-19 20:56 444K
20260419T18Z_MSC_RDPS_WindU_IsbL-0250_RLatLon0.09_PT056H.grib2 2026-04-19 20:56 343K
20260419T18Z_MSC_RDPS_WindU_IsbL-0275_RLatLon0.09_PT056H.grib2 2026-04-19 20:56 352K
20260419T18Z_MSC_RDPS_WindU_IsbL-0300_RLatLon0.09_PT056H.grib2 2026-04-19 20:56 348K
20260419T18Z_MSC_RDPS_WindU_IsbL-0350_RLatLon0.09_PT056H.grib2 2026-04-19 20:56 355K
20260419T18Z_MSC_RDPS_WindU_IsbL-0400_RLatLon0.09_PT056H.grib2 2026-04-19 20:56 463K
20260419T18Z_MSC_RDPS_WindU_IsbL-0450_RLatLon0.09_PT056H.grib2 2026-04-19 20:56 466K
20260419T18Z_MSC_RDPS_WindU_IsbL-0500_RLatLon0.09_PT056H.grib2 2026-04-19 20:56 471K
20260419T18Z_MSC_RDPS_WindU_IsbL-0550_RLatLon0.09_PT056H.grib2 2026-04-19 20:56 476K
20260419T18Z_MSC_RDPS_WindU_IsbL-0600_RLatLon0.09_PT056H.grib2 2026-04-19 20:56 485K
20260419T18Z_MSC_RDPS_WindU_IsbL-0650_RLatLon0.09_PT056H.grib2 2026-04-19 20:56 499K
20260419T18Z_MSC_RDPS_WindU_IsbL-0700_RLatLon0.09_PT056H.grib2 2026-04-19 20:56 516K
20260419T18Z_MSC_RDPS_WindU_IsbL-0750_RLatLon0.09_PT056H.grib2 2026-04-19 20:56 527K
20260419T18Z_MSC_RDPS_WindU_IsbL-0800_RLatLon0.09_PT056H.grib2 2026-04-19 20:56 573K
20260419T18Z_MSC_RDPS_WindU_IsbL-0850_RLatLon0.09_PT056H.grib2 2026-04-19 20:56 625K
20260419T18Z_MSC_RDPS_WindU_IsbL-0875_RLatLon0.09_PT056H.grib2 2026-04-19 20:56 641K
20260419T18Z_MSC_RDPS_WindU_IsbL-0900_RLatLon0.09_PT056H.grib2 2026-04-19 20:56 650K
20260419T18Z_MSC_RDPS_WindU_IsbL-0925_RLatLon0.09_PT056H.grib2 2026-04-19 20:56 658K
20260419T18Z_MSC_RDPS_WindU_IsbL-0950_RLatLon0.09_PT056H.grib2 2026-04-19 20:56 655K
20260419T18Z_MSC_RDPS_WindU_IsbL-0970_RLatLon0.09_PT056H.grib2 2026-04-19 20:56 654K
20260419T18Z_MSC_RDPS_WindU_IsbL-0985_RLatLon0.09_PT056H.grib2 2026-04-19 20:56 791K
20260419T18Z_MSC_RDPS_WindU_IsbL-1000_RLatLon0.09_PT056H.grib2 2026-04-19 20:56 786K
20260419T18Z_MSC_RDPS_WindU_IsbL-1015_RLatLon0.09_PT056H.grib2 2026-04-19 20:56 827K
20260419T18Z_MSC_RDPS_WindV_AGL-10m_RLatLon0.09_PT056H.grib2 2026-04-19 20:56 432K
20260419T18Z_MSC_RDPS_WindV_AGL-120m_RLatLon0.09_PT056H.grib2 2026-04-19 20:56 418K
20260419T18Z_MSC_RDPS_WindV_AGL-40m_RLatLon0.09_PT056H.grib2 2026-04-19 20:56 539K
20260419T18Z_MSC_RDPS_WindV_AGL-80m_RLatLon0.09_PT056H.grib2 2026-04-19 20:56 536K
20260419T18Z_MSC_RDPS_WindV_IsbL-0001_RLatLon0.09_PT056H.grib2 2026-04-19 20:56 237K
20260419T18Z_MSC_RDPS_WindV_IsbL-0005_RLatLon0.09_PT056H.grib2 2026-04-19 20:56 330K
20260419T18Z_MSC_RDPS_WindV_IsbL-0010_RLatLon0.09_PT056H.grib2 2026-04-19 20:56 307K
20260419T18Z_MSC_RDPS_WindV_IsbL-0020_RLatLon0.09_PT056H.grib2 2026-04-19 20:56 327K
20260419T18Z_MSC_RDPS_WindV_IsbL-0030_RLatLon0.09_PT056H.grib2 2026-04-19 20:56 365K
20260419T18Z_MSC_RDPS_WindV_IsbL-0050_RLatLon0.09_PT056H.grib2 2026-04-19 20:56 366K
20260419T18Z_MSC_RDPS_WindV_IsbL-0100_RLatLon0.09_PT056H.grib2 2026-04-19 20:56 346K
20260419T18Z_MSC_RDPS_WindV_IsbL-0150_RLatLon0.09_PT056H.grib2 2026-04-19 20:56 397K
20260419T18Z_MSC_RDPS_WindV_IsbL-0175_RLatLon0.09_PT056H.grib2 2026-04-19 20:56 422K
20260419T18Z_MSC_RDPS_WindV_IsbL-0200_RLatLon0.09_PT056H.grib2 2026-04-19 20:56 339K
20260419T18Z_MSC_RDPS_WindV_IsbL-0225_RLatLon0.09_PT056H.grib2 2026-04-19 20:56 342K
20260419T18Z_MSC_RDPS_WindV_IsbL-0250_RLatLon0.09_PT056H.grib2 2026-04-19 20:56 341K
20260419T18Z_MSC_RDPS_WindV_IsbL-0275_RLatLon0.09_PT056H.grib2 2026-04-19 20:56 352K
20260419T18Z_MSC_RDPS_WindV_IsbL-0300_RLatLon0.09_PT056H.grib2 2026-04-19 20:56 372K
20260419T18Z_MSC_RDPS_WindV_IsbL-0350_RLatLon0.09_PT056H.grib2 2026-04-19 20:56 354K
20260419T18Z_MSC_RDPS_WindV_IsbL-0400_RLatLon0.09_PT056H.grib2 2026-04-19 20:56 360K
20260419T18Z_MSC_RDPS_WindV_IsbL-0450_RLatLon0.09_PT056H.grib2 2026-04-19 20:56 363K
20260419T18Z_MSC_RDPS_WindV_IsbL-0500_RLatLon0.09_PT056H.grib2 2026-04-19 20:56 471K
20260419T18Z_MSC_RDPS_WindV_IsbL-0550_RLatLon0.09_PT056H.grib2 2026-04-19 20:56 476K
20260419T18Z_MSC_RDPS_WindV_IsbL-0600_RLatLon0.09_PT056H.grib2 2026-04-19 20:56 484K
20260419T18Z_MSC_RDPS_WindV_IsbL-0650_RLatLon0.09_PT056H.grib2 2026-04-19 20:56 497K
20260419T18Z_MSC_RDPS_WindV_IsbL-0700_RLatLon0.09_PT056H.grib2 2026-04-19 20:56 500K
20260419T18Z_MSC_RDPS_WindV_IsbL-0750_RLatLon0.09_PT056H.grib2 2026-04-19 20:56 525K
20260419T18Z_MSC_RDPS_WindV_IsbL-0800_RLatLon0.09_PT056H.grib2 2026-04-19 20:56 572K
20260419T18Z_MSC_RDPS_WindV_IsbL-0850_RLatLon0.09_PT056H.grib2 2026-04-19 20:56 623K
20260419T18Z_MSC_RDPS_WindV_IsbL-0875_RLatLon0.09_PT056H.grib2 2026-04-19 20:56 639K
20260419T18Z_MSC_RDPS_WindV_IsbL-0900_RLatLon0.09_PT056H.grib2 2026-04-19 20:56 649K
20260419T18Z_MSC_RDPS_WindV_IsbL-0925_RLatLon0.09_PT056H.grib2 2026-04-19 20:56 656K
20260419T18Z_MSC_RDPS_WindV_IsbL-0950_RLatLon0.09_PT056H.grib2 2026-04-19 20:56 655K
20260419T18Z_MSC_RDPS_WindV_IsbL-0970_RLatLon0.09_PT056H.grib2 2026-04-19 20:56 654K
20260419T18Z_MSC_RDPS_WindV_IsbL-0985_RLatLon0.09_PT056H.grib2 2026-04-19 20:56 651K
20260419T18Z_MSC_RDPS_WindV_IsbL-1000_RLatLon0.09_PT056H.grib2 2026-04-19 20:56 787K
20260419T18Z_MSC_RDPS_WindV_IsbL-1015_RLatLon0.09_PT056H.grib2 2026-04-19 20:56 781K